Weather History for KRSV - January, 2013

Change the Weather History Date:

Tuesday, January 8, 2013

  Actual Average (KLWV) Record (KLWV)
Temperature  
Mean Temperature 30 °F 31 °F  
Max Temperature 42 °F 39 °F 63 °F (2006)
Min Temperature 19 °F 23 °F 0 °F (2015)
Degree Days  
Heating Degree Days 34 34  
Month to date heating degree days 272  
Since 1 July heating degree days 2071  
Cooling Degree Days 0 0  
Month to date cooling degree days 0  
Year to date cooling degree days 0  
Moisture  
Dew Point 27 °F    
Average Humidity 83    
Maximum Humidity 96    
Minimum Humidity 63    
Precipitation  
Precipitation 0.00 in 0.08 in 1.14 in (2008)
Month to date precipitation 0.74  
Year to date precipitation 0.74  
Sea Level Pressure  
Sea Level Pressure 30.23 in    
Wind  
Wind Speed 3 mph (SE)    
Max Wind Speed 12 mph    
Max Gust Speed -    
Visibility 7 miles    
Events      
T = Trace of Precipitation, MM = Missing Value Source: NWS Daily Summary

Daily Weather History Graph

Daily Weather History Graph

Search for Another Location

Airport or City:

Trip Planner

Search our weather history database for the weather conditions in past years. The results will help you decide how hot, cold, wet, or windy it might be!

Date:

Astronomy

Jan. 08, 2013 Rise Set
Actual Time 7:09 AM CST 4:45 PM CST
Civil Twilight 6:40 AM CST 5:15 PM CST
Nautical Twilight 6:06 AM CST 5:48 PM CST
Astronomical Twilight 5:34 AM CST 6:20 PM CST
Moon 3:42 AM CST (1/8) 1:47 PM CST (1/8)
Length of Visible Light 10h 35m
Length of Day
9h 35m
Waning Crescent, 13% of the Moon is Illuminated
Jan 8
Waning Crescent
Jan 11
New
Jan 18
First Quarter
Jan 26
Full
Feb 3
Last Quarter

Hourly Weather History & Observations

Time (CST) Temp. Windchill Dew Point Humidity Pressure Visibility Wind Dir Wind Speed Gust Speed Precip Events Conditions
12:15 AM 26.2 °F 22.1 °F 24.4 °F 93% 30.23 in 7.0 mi SSE 3.5 mph - N/A   Clear
12:35 AM 26.1 °F 21.9 °F 24.4 °F 94% 30.23 in 7.0 mi SE 3.5 mph - N/A   Clear
12:55 AM 24.4 °F - 22.8 °F 94% 30.23 in 7.0 mi Calm Calm - N/A   Clear
1:15 AM 25.5 °F - 23.2 °F 91% 30.23 in 7.0 mi Calm Calm - N/A   Clear
1:35 AM 23.4 °F 17.4 °F 21.7 °F 94% 30.23 in 4.0 mi East 4.6 mph - N/A   Clear
1:55 AM 22.1 °F - 20.7 °F 94% 30.23 in 4.0 mi Calm Calm - N/A   Clear
2:15 AM 22.5 °F - 21.2 °F 95% 30.23 in 4.0 mi Calm Calm - N/A   Clear
2:35 AM 22.8 °F - 21.7 °F 96% 30.23 in 4.0 mi Calm Calm - N/A   Clear
2:55 AM 21.7 °F - 20.3 °F 94% 30.23 in 4.0 mi Calm Calm - N/A   Clear
3:15 AM 23.7 °F - 22.6 °F 96% 30.23 in 4.0 mi Calm Calm - N/A   Clear
3:35 AM 22.6 °F - 21.4 °F 95% 30.23 in 2.5 mi Calm Calm - N/A   Clear
3:55 AM 22.1 °F - 21.0 °F 96% 30.24 in 3.0 mi Calm Calm - N/A   Clear
4:15 AM 22.5 °F - 21.6 °F 96% 30.24 in 3.0 mi Calm Calm - N/A   Clear
4:35 AM 23.2 °F - 22.1 °F 96% 30.24 in 2.5 mi Calm Calm - N/A   Clear
4:55 AM 22.5 °F 17.8 °F 21.4 °F 96% 30.25 in 3.0 mi East 3.5 mph - N/A   Clear
5:35 AM 19.9 °F 14.9 °F 18.9 °F 96% 30.25 in 2.5 mi ESE 3.5 mph - N/A   Clear
5:55 AM 20.7 °F - 19.4 °F 95% 30.26 in 3.0 mi Calm Calm - N/A   Clear
6:15 AM 20.8 °F - 19.6 °F 95% 30.25 in 3.0 mi Calm Calm - N/A   Clear
6:35 AM 20.1 °F 15.2 °F 19.0 °F 96% 30.26 in 4.0 mi SE 3.5 mph - N/A   Clear
7:15 AM 22.5 °F 17.8 °F 20.8 °F 93% 30.27 in 3.0 mi ESE 3.5 mph - N/A   Clear
7:35 AM 21.9 °F - 20.7 °F 95% 30.27 in 2.5 mi Calm Calm - N/A   Clear
7:55 AM 24.6 °F - 23.4 °F 95% 30.27 in 3.0 mi Calm Calm - N/A   Clear
8:15 AM 25.9 °F - 24.6 °F 95% 30.28 in 3.0 mi Calm Calm - N/A   Clear
8:35 AM 26.8 °F - 25.3 °F 94% 30.28 in 3.0 mi Calm Calm - N/A   Clear
8:55 AM 31.1 °F - 28.9 °F 92% 30.28 in 4.0 mi Calm Calm - N/A   Clear
9:15 AM 33.1 °F - 29.1 °F 85% 30.28 in 5.0 mi Calm Calm - N/A   Clear
9:35 AM 35.2 °F 28.8 °F 28.8 °F 77% 30.28 in 7.0 mi SSE 8.1 mph - N/A   Clear
9:55 AM 36.9 °F 29.1 °F 29.1 °F 74% 30.29 in 7.0 mi SSE 11.5 mph - N/A   Clear
10:15 AM 37.0 °F 29.8 °F 28.9 °F 73% 30.28 in 7.0 mi SSE 10.4 mph - N/A   Clear
10:55 AM 38.5 °F 31.6 °F 29.5 °F 70% 30.26 in 7.0 mi SSE 10.4 mph - N/A   Clear
11:15 AM 39.2 °F 33.0 °F 29.8 °F 69% 30.25 in 7.0 mi SSE 9.2 mph - N/A   Clear
11:35 AM 39.4 °F 34.5 °F 30.2 °F 70% 30.24 in 7.0 mi SSE 6.9 mph - N/A   Clear
11:55 AM 40.1 °F 35.3 °F 30.2 °F 68% 30.23 in 10.0 mi SE 6.9 mph - N/A   Clear
12:15 PM 40.6 °F 36.0 °F 30.2 °F 66% 30.22 in 10.0 mi SSE 6.9 mph - N/A   Clear
12:35 PM 41.7 °F 36.7 °F 30.4 °F 64% 30.22 in 10.0 mi SSE 8.1 mph - N/A   Clear
12:55 PM 41.9 °F 36.3 °F 30.2 °F 63% 30.22 in 10.0 mi SE 9.2 mph - N/A   Clear
1:15 PM 41.7 °F 35.6 °F 30.7 °F 65% 30.22 in 10.0 mi SE 10.4 mph - N/A   Clear
1:35 PM 42.1 °F 37.7 °F 30.9 °F 65% 30.22 in 10.0 mi SSE 6.9 mph - N/A   Clear
1:55 PM 42.1 °F 37.1 °F 30.9 °F 65% 30.22 in 10.0 mi SE 8.1 mph - N/A   Clear
2:15 PM 42.1 °F 37.7 °F 31.5 °F 66% 30.22 in 10.0 mi SE 6.9 mph - N/A   Clear
3:15 PM 41.5 °F 37.1 °F 31.1 °F 66% 30.22 in 10.0 mi SE 6.9 mph - N/A   Clear
3:55 PM 40.6 °F 36.0 °F 30.9 °F 68% 30.21 in 10.0 mi SE 6.9 mph - N/A   Clear
4:15 PM 38.8 °F 33.8 °F 30.7 °F 73% 30.21 in 10.0 mi SE 6.9 mph - N/A   Clear
4:35 PM 40.1 °F 36.1 °F 30.2 °F 68% 30.21 in 10.0 mi SE 5.8 mph - N/A   Clear
4:55 PM 38.5 °F 34.1 °F 30.2 °F 72% 30.22 in 10.0 mi SE 5.8 mph - N/A   Clear
5:15 PM 39.4 °F 36.1 °F 30.2 °F 70% 30.21 in 10.0 mi SE 4.6 mph - N/A   Clear
5:35 PM 37.4 °F 33.8 °F 29.8 °F 74% 30.22 in 10.0 mi SE 4.6 mph - N/A   Clear
5:55 PM 35.2 °F 31.2 °F 29.7 °F 80% 30.22 in 10.0 mi SE 4.6 mph - N/A   Scattered Clouds
6:15 PM 34.9 °F 32.0 °F 29.8 °F 82% 30.23 in 10.0 mi ESE 3.5 mph - N/A   Scattered Clouds
6:35 PM 35.8 °F 31.9 °F 30.0 °F 80% 30.23 in 10.0 mi ESE 4.6 mph - N/A   Mostly Cloudy
6:55 PM 35.2 °F 31.2 °F 30.0 °F 81% 30.21 in 10.0 mi SE 4.6 mph - N/A   Mostly Cloudy
7:15 PM 36.1 °F 33.5 °F 30.2 °F 79% 30.21 in 10.0 mi ESE 3.5 mph - N/A   Mostly Cloudy
7:35 PM 34.5 °F 31.6 °F 29.8 °F 83% 30.20 in 10.0 mi SE 3.5 mph - N/A   Scattered Clouds
7:55 PM 34.3 °F 30.2 °F 30.0 °F 84% 30.20 in 10.0 mi SE 4.6 mph - N/A   Clear
8:15 PM 33.8 °F 29.6 °F 29.1 °F 83% 30.19 in 10.0 mi SE 4.6 mph - N/A   Clear
8:35 PM 32.9 °F 29.8 °F 29.3 °F 87% 30.19 in 10.0 mi ESE 3.5 mph - N/A   Scattered Clouds
8:55 PM 33.1 °F 28.7 °F 29.3 °F 86% 30.19 in 10.0 mi ESE 4.6 mph - N/A   Mostly Cloudy
9:15 PM 33.4 °F - 30.0 °F 87% 30.20 in 10.0 mi Calm Calm - N/A   Overcast
9:35 PM 35.1 °F - 31.5 °F 87% 30.20 in 10.0 mi Calm Calm - N/A   Overcast
9:55 PM 35.1 °F 32.2 °F 32.5 °F 91% 30.21 in 10.0 mi SSE 3.5 mph - N/A   Overcast
10:15 PM 36.5 °F - 32.0 °F 84% 30.21 in 10.0 mi Calm Calm - N/A   Overcast
10:35 PM 37.0 °F - 32.0 °F 82% 30.21 in 10.0 mi Calm Calm - N/A   Overcast
10:55 PM 39.0 °F - 32.0 °F 76% 30.20 in 10.0 mi Calm Calm - N/A   Overcast
11:15 PM 37.6 °F - 32.4 °F 81% 30.19 in 10.0 mi Calm Calm - N/A   Overcast
11:35 PM 39.9 °F - 32.9 °F 76% 30.19 in 10.0 mi Calm Calm - N/A   Overcast
11:55 PM 39.0 °F - 32.7 °F 78% 30.20 in 10.0 mi Calm Calm - N/A   Overcast